World > North America > United States > Mississippi > Becker  

Becker, MS Hourly Weather Updates

Feedback E-mail the Weather

Quick WX

Becker, MS Weather Maps

°F °C°F °C
Becker Weather Map
UTC Time: 2/23/2024, 11:01
Your Time:

Becker, MS Regional Weather

Expires:202402231100;;553730
ASUS44 KJAN 231010
RWRMS 

MISSISSIPPI HOURLY WEATHER ROUNDUP
NATIONAL WEATHER SERVICE JACKSON MS
400 AM CST FRI FEB 23 2024

NOTE: "FAIR: INDICATES FEW OR NO CLOUDS BELOW 12,000 FEET WITH NO
SIGNIFICANT WEATHER AND/OR OBSTRUCTIONS TO VISIBILITY.


MSZ003>006-009-014>017-022>024-029>033-037>039-231100-
NORTHEAST MISSISSIPPI
  
CITY           SKY/WX    TMP DP  RH WIND       PRES   REMARKS
ABERDEEN       CLEAR     52  52 100 CALM      29.75R                  
COLUMBUS AFB   CLEAR     54  51  90 NW7       29.70R                  
CORINTH        CLOUDY    54  52  94 NW7       29.74R                  
GOLDN TRIANGLE CLEAR     54  52  93 NW8       29.75R                  
IUKA           CLOUDY    52  52 100 VRB3      29.72S                  
LOUISVILLE     CLOUDY    57  57 100 NW6       29.77R                  
STARKVILLE     CLEAR     54  54 100 CALM      29.73R                  
TUPELO         CLOUDY    54  52  93 NW6       29.74R                  
$$


SKY/WX - Weather  TMP - Temperature  DP - Dew Point  RH - Humidity
WIND - Wind Direction/Speed PRES - Barometric Pressure VSB - Visibility
WCI - Wind Chill Index E13G22 Wind - East Wind 13 mph/Gusts of 22 mph

Trending Headlines

Trending Entertainment Headlines

Becker Radar Loop

Use the map search tool if you want to place a location marker on the radar map...

Becker Quick Facts

National Two Day Weather Forecast


E-mail the Becker Weather Forecast

Voice your opinion or tell us about page issues...